This demonstration page uses our WeatherBlox Daily Observations layout. Learn more.

Left ArrowRight Arrow

Hourly Observations for December 25, 2021

Temp ( °F °C ) Dew Point ( °F °C ) Humidity (%) Winds ( mph kmh ) Pressure ( in mb ) Visibility ( mi km ) Precip ( " mm )
12:59 am 00:59 Clear 56 13.3 37 2.8 49 49 SW 12 19 29.89 1012 10 16 0.00 0.00
1:59 am 01:59 Mostly Cloudy 55 12.8 38 3.3 53 53 SSW 14 22 29.87 1012 10 16 0.00 0.00
2:59 am 02:59 Mostly Cloudy 56 13.3 40 4.4 55 55 SW 12 19 29.86 1011 10 16 0.00 0.00
3:59 am 03:59 Mostly Cloudy 55 12.8 41 5 59 59 SW 12 19 29.85 1011 10 16 0.00 0.00
4:59 am 04:59 Mostly Cloudy 56 13.3 43 6.1 62 62 SW 12 19 29.84 1011 10 16 0.00 0.00
5:59 am 05:59 Partly Cloudy 56 13.3 44 6.7 65 65 SW 12 19 29.83 1010 10 16 0.00 0.00
6:59 am 06:59 Cloudy 56 13.3 46 7.8 70 70 SW 13 20 29.83 1010 10 16 0.00 0.00
7:59 am 07:59 Cloudy 56 13.3 47 8.3 72 72 SW 10 17 29.80 1009 10 16 0.00 0.00
8:59 am 08:59 Cloudy 57 13.9 49 9.4 74 74 SW 17 28 29.79 1009 10 16 0.00 0.00
9:59 am 09:59 Cloudy 60 15.6 50 10 70 70 SW 23 37 29.79 1009 10 16 0.00 0.00
10:59 am 10:59 Mostly Cloudy 62 16.7 51 10.6 67 67 SW 18 30 29.76 1008 10 16 0.00 0.00
11:59 am 11:59 Mostly Cloudy 63 17.2 51 10.6 65 65 SW 20 31 29.70 1006 10 16 0.00 0.00
12:59 pm 12:59 Mostly Cloudy 67 19.4 52 11.1 59 59 SW 16 26 29.68 1005 10 16 0.00 0.00
1:59 pm 13:59 Partly Cloudy 69 20.6 52 11.1 55 55 SW 18 30 29.65 1004 10 16 0.00 0.00
2:59 pm 14:59 Partly Cloudy 69 20.6 53 11.7 57 57 SW 12 19 29.65 1004 10 16 0.00 0.00
3:59 pm 15:59 Partly Cloudy 69 20.6 52 11.1 55 55 SW 15 24 29.65 1004 10 16 0.00 0.00
4:59 pm 16:59 Partly Cloudy 68 20 53 11.7 59 59 SW 12 19 29.66 1005 10 16 0.00 0.00
5:59 pm 17:59 Mostly Clear 66 18.9 53 11.7 63 63 SW 10 17 29.68 1005 10 16 0.00 0.00
6:59 pm 18:59 Clear 65 18.3 54 12.2 68 68 SW 9 15 29.69 1006 10 16 0.00 0.00
7:59 pm 19:59 Clear 66 18.9 54 12.2 65 65 WSW 14 22 29.69 1005 10 16 0.00 0.00
8:59 pm 20:59 Clear 67 19.4 55 12.8 66 66 WSW 16 26 29.70 1006 10 16 0.00 0.00
9:59 pm 21:59 Clear 67 19.4 55 12.8 66 66 WSW 14 22 29.71 1006 10 16 0.00 0.00
10:59 pm 22:59 Cloudy 67 19.4 56 13.3 68 68 WSW 15 24 29.72 1007 10 16 0.00 0.00
11:59 pm 23:59 Cloudy 66 18.9 56 13.3 70 70 WSW 10 17 29.73 1007 10 16 0.00 0.00

Powered by AerisWeather